Hourly Weather Roundup
Issued by NWS Central Illinois

Home | Current Version | Previous Version | Graphics & Text | Print | Product List | Glossary On
Versions: 1 2 3 4 5 6 7 8 9 10 11 12 13 14 15 16 17 18 19 20 21 22 23 24 25 26 27 28 29 30 31 32 33 34 35 36 37 38 39 40 41 42 43 44 45 46 47 48 49 50
963
NZUS43 KILX 212110
HWRILX

Area Weather Roundup
National Weather Service Lincoln IL
400 PM CDT MON AUG 21 2017

NOTE:  "FAIR" indicates few or no clouds below 12,000 feet, with
       no sigificant weather and/or obstructions to visibility.


CITY           SKY/WX    TMP DP  RH WIND       PRES   REMARKS
Bloomington    CLOUDY    79  70  74 S14       30.04F HX  82
Champaign      MOSUNNY   88  67  49 SE8       30.05F HX  91
Danville       CLOUDY    83  71  68 SE7       30.02F HX  87
Decatur        MOSUNNY   85  68  56 S10       30.04F HX  88
Effingham      CLOUDY    81  75  82 CALM      30.07F HX  86
Flora          TSTM      81  70  68 N14G28    30.06R HX  85
Galesburg      CLOUDY    75  70  85 S12G17    30.00F
Jacksonville   CLOUDY    78  72  80 SW6       30.05S HX  81
Lacon          CLOUDY    77  71  82 SW10      29.99F
Lawrenceville  LGT RAIN  73  73 100 CALM      30.11S FOG
Litchfield     CLOUDY    83  73  71 E7        30.06R HX  88
$$


CITY           SKY/WX    TMP DP  RH WIND       PRES   REMARKS
Lincoln        PTSUNNY   84  71  65 S9        30.02F HX  89
Macomb         CLOUDY    75  71  88 S13       30.00F
Mattoon        MOSUNNY   81  74  79 SE5       30.04F HX  86
Mt Carmel AP   TSTM      74  69  84 NE12      30.08R
Olney-Noble AP TSTM      73  71  93 E20G32    30.08R VSB 1
Paris AP       MOSUNNY   85  74  68 S10       30.06F HX  92
Peoria         CLOUDY    77  72  84 SW9       30.02R
Pontiac        PTSUNNY   82  71  68 S10       30.02S HX  86
Rantoul        CLOUDY    84  71  64 S9        30.04F HX  89
Robinson       CLOUDY    71  70  96 S6        30.09F
Springfield    CLOUDY    84  72  67 S10       30.04F HX  89
Taylorville    CLOUDY    82  73  74 S7        30.05S HX  87
$$

...REGIONAL REPORTS...


CITY           SKY/WX    TMP DP  RH WIND       PRES   REMARKS
Chicago O`Hare CLOUDY    85  69  58 S6        29.98R HX  89
Kankakee       SUNNY     84  72  68 S6        30.02S HX  89
Moline         MOSUNNY   82  69  64 SW12      29.96F HX  85
Mount Sterling CLOUDY    74  70  88 S15       30.00F
Mount Vernon     N/A     90  77  65 SW12      30.03F HX 103
Pittsfield     TSTM      72  69  89 NW3       30.05F
Quincy         PTSUNNY   76  71  85 S13       30.00F
Rockford       CLOUDY    83  69  62 S13       29.97F HX  86
$$


CITY           SKY/WX    TMP DP  RH WIND       PRES   REMARKS
Burlington     CLOUDY    77  70  79 SW13G21   29.95F
Cedar Rapids   CLOUDY    75  69  81 S3        29.96F
Des Moines     CLOUDY    82  70  66 S9        29.93F HX  86
Kirksville     MOSUNNY   78 N/A N/A S10       30.02F
Ottumwa        PTSUNNY   84  69  60 SW10      29.93F HX  88
St Louis       CLOUDY    87  71  58 VRB6G25   30.04S THUNDER HX  93
$$


CITY           SKY/WX    TMP DP  RH WIND       PRES   REMARKS
Terre Haute    CLOUDY    81  71  71 SE9       30.08F HX  85
Evansville     SUNNY     92  69  47 SE9       30.06F HX  97
Indianapolis   TSTM      76  69  79 CALM      30.09S
Lafayette      MOSUNNY   84  73  69 S9        30.03F HX  90
Madison        PTSUNNY   79  69  71 S8        29.94F HX  81
Milwaukee      CLOUDY    81  72  74 S10       29.95F HX  85
$$






USA.gov is the U.S. government's official web portal to all federal, state and local government web resources and services.